Orbital Elements at Epoch 2459200.5 (2020-Dec-17.0) TDB
Reference: JPL 24 (heliocentric ecliptic J2000)
Element | Value | Uncertainty (1-sigma) | Units |
e | .08962445047619927 | 3.4674e-08 | |
a | 2.999519923281262 | 1.8362e-08 | au |
q | 2.730689598464767 | 9.9802e-08 | au |
i | .4927766964673926 | 3.8708e-06 | deg |
node | 48.88372300204112 | 0.00041182 | deg |
peri | 291.8485502882271 | 0.00041238 | deg |
M | 68.35842493656615 | 2.1144e-05 | deg |
tp | 2458840.198890081281 (2019-Dec-22.69889008) | 0.00011122 | TDB |
period | 1897.474959247571 5.20 | 1.7423e-05 4.77e-08 | d yr |
n | .1897258239143009 | 1.7421e-09 | deg/d |
Q | 3.268350248097756 | 2.0007e-08 | au |
|
| | Orbit Determination Parameters
Additional Information
|